Location: Hall+in+Tirol
(47.2830°N, 11.5170°E)
Time: 07:50:11
(UTC+02:00)

Amateur Radio Satellites - All Passes

Search period start: 04 September 2015 07:20
Search period end: 05 September 2015 07:20
Location: Hall+in+Tirol, 47.2830°N, 11.5170°E

Satellite Date Start Highest point End Downlink Frequencies (MHz)
Time Altitude Azimuth
PRISM 04 Sep 07:24:00 07:28:03 68° 74° (ENE) 07:32:08 437.425
CUTE-I 04 Sep 07:35:09 07:40:27 65° 102° (ESE) 07:45:45 437.470
ISS 04 Sep 07:53:11 07:55:22 17° 138° (SE) 07:57:37 145.825
AIST 1 04 Sep 07:58:07 08:02:05 40° 93° (E) 08:06:06
PHONESAT 2.4 04 Sep 07:59:10 08:02:00 24° 187° (S) 08:04:50 2401.200-2431.200
STRAND 1 04 Sep 08:02:03 08:06:53 42° 262° (W) 08:11:43 437.568
Cosmos 2491 04 Sep 08:04:41 08:11:27 27° 81° (E) 08:18:29 435.465 / 435.565
AO-7 04 Sep 08:05:25 08:11:08 20° 316° (NW) 08:16:34 29.400- 29.500
PCSat 04 Sep 08:07:30 08:10:11 14° 23° (NNE) 08:13:00 145.827
SO-50 04 Sep 08:11:07 08:15:32 31° 38° (NE) 08:19:56 436.795
CANX-2 04 Sep 08:31:10 08:32:24 11° 86° (E) 08:33:51 2200.000
Cubesat XI-IV 04 Sep 08:31:27 08:36:30 45° 292° (WNW) 08:41:32 437.490
BRITE-PL 04 Sep 08:43:29 08:49:00 64° 100° (E) 08:54:40 437.365/2234.400
Cosmos 2504 04 Sep 08:44:59 08:50:25 19° 53° (NE) 08:56:01 435.465 / 435.565
SEEDS 04 Sep 08:46:11 08:47:34 12° 86° (E) 08:49:10 437.485
DOVE 4 04 Sep 08:51:48 08:56:26 30° 92° (E) 09:01:06 437.250
GOMX 1 04 Sep 08:54:50 09:00:10 50° 98° (E) 09:05:31 467.674
DANDE 04 Sep 08:54:58 08:57:21 12° 49° (NE) 09:00:18 436.750
COMPASS 1 04 Sep 09:01:42 09:03:41 13° 87° (E) 09:05:50 437.405
PRISM 04 Sep 09:02:13 09:04:01 12° 272° (W) 09:05:37 437.425
YUBILEINY 04 Sep 09:06:43 09:15:30 68° 266° (W) 09:24:09 435.215
AAUSAT CUBESAT 2 04 Sep 09:08:46 09:10:44 13° 87° (E) 09:12:54 437.432
AUBIESAT-1 04 Sep 09:09:03 09:10:52 12° 52° (NE) 09:12:50 437.475
CINEMA 3 04 Sep 09:12:19 09:16:01 21° 89° (E) 09:19:45 145.822/145.860
CUTE-I 04 Sep 09:16:06 09:20:07 22° 300° (WNW) 09:24:00 437.470
UNISAT 6 04 Sep 09:16:34 09:18:37 13° 58° (ENE) 09:20:51 437.425
M-CUBED/EXP-1 PRIME 04 Sep 09:16:39 09:19:33 17° 55° (NE) 09:22:32 437.505
ISS 04 Sep 09:28:10 09:31:26 90° 333° (NNW) 09:34:43 145.825
HO-68 04 Sep 09:30:18 09:37:14 48° 99° (E) 09:44:10 435.675
AIST 1 04 Sep 09:36:40 09:39:57 21° 292° (WNW) 09:43:09
PHONESAT 2.4 04 Sep 09:37:36 09:39:14 13° 203° (SSW) 09:40:48 2401.200-2431.200
CUSAT 1 04 Sep 09:41:44 09:48:22 30° 63° (ENE) 09:55:30 437.405
TIGRISAT 04 Sep 09:42:02 09:45:28 21° 63° (ENE) 09:49:00 435.000
PCSat 04 Sep 09:49:56 09:55:07 43° 47° (NE) 10:00:18 145.827
CUTE 1.7 + AOD 2 04 Sep 09:50:07 09:54:20 68° 101° (E) 09:58:31 437.475
SO-50 04 Sep 09:51:31 09:56:22 54° 238° (WSW) 10:01:04 436.795
Cosmos 2491 04 Sep 09:58:54 10:07:36 74° 282° (WNW) 10:16:21 435.465 / 435.565
ANTELSAT 04 Sep 09:59:53 10:03:57 30° 66° (ENE) 10:08:06 437.575/2403.000
ZACube-1 04 Sep 10:00:53 10:03:33 16° 88° (E) 10:06:20 437.345
NANOSAT C BR1 04 Sep 10:02:08 10:03:38 12° 59° (ENE) 10:05:18 145.865
QB50P2 04 Sep 10:03:36 10:05:28 13° 60° (ENE) 10:07:31 145.880/145.840
FUNcube-1 04 Sep 10:04:31 10:07:19 17° 88° (E) 10:10:11 145.935
CANX-2 04 Sep 10:04:42 10:08:58 77° 285° (WNW) 10:13:09 2200.000
UWE-3 04 Sep 10:14:59 10:18:56 28° 93° (E) 10:22:49 435.000/436.395/437.385
CUBEBUG 2 04 Sep 10:15:20 10:19:39 36° 95° (E) 10:23:52 437.445
QB50P1 04 Sep 10:16:06 10:18:42 16° 62° (ENE) 10:21:26 145.935-145.965
SEEDS 04 Sep 10:19:45 10:23:58 74° 285° (WNW) 10:28:07 437.485
BRITE-PL 04 Sep 10:22:44 10:27:07 24° 297° (WNW) 10:31:29 437.365/2234.400
DOVE 4 04 Sep 10:29:16 10:34:18 43° 291° (WNW) 10:39:14 437.250
GOMX 1 04 Sep 10:33:23 10:38:02 28° 295° (WNW) 10:42:37 467.674
DANDE 04 Sep 10:35:11 10:42:27 46° 70° (ENE) 10:50:36 436.750
COMPASS 1 04 Sep 10:35:42 10:39:50 63° 286° (WNW) 10:43:55 437.405
Cosmos 2504 04 Sep 10:35:58 10:44:31 74° 78° (ENE) 10:52:31 435.465 / 435.565
AUBIESAT-1 04 Sep 10:40:12 10:44:55 74° 68° (ENE) 10:49:29 437.475
DELFI C3 04 Sep 10:41:21 10:45:04 36° 97° (E) 10:48:46 145.870
AAUSAT CUBESAT 2 04 Sep 10:42:42 10:46:49 62° 287° (WNW) 10:50:53 437.432
Oscar 11 04 Sep 10:44:48 10:49:06 62° 101° (E) 10:53:21 145.826/435.025
CINEMA 3 04 Sep 10:48:41 10:53:35 55° 289° (WNW) 10:58:20 145.822/145.860
M-CUBED/EXP-1 PRIME 04 Sep 10:49:01 10:53:50 81° 252° (WSW) 10:58:29 437.505
UNISAT 6 04 Sep 10:50:00 10:54:43 86° 79° (ENE) 10:59:29 437.425
UKube-1 04 Sep 10:53:08 10:53:13 10° 85° (E) 10:53:34 .
ISS 04 Sep 11:05:00 11:08:06 37° 354° (N) 11:11:11 145.825
YUBILEINY 04 Sep 11:06:12 11:10:45 15° 287° (WNW) 11:14:45 435.215
BUGSAT 1 04 Sep 11:07:59 11:11:34 30° 68° (ENE) 11:15:15 437.445
DUCHIFAT 1 04 Sep 11:15:47 11:19:56 57° 72° (ENE) 11:24:09 145.980
TIGRISAT 04 Sep 11:17:13 11:21:51 55° 260° (W) 11:26:30 435.000
POLYITAN 1 04 Sep 11:17:28 11:21:42 63° 73° (ENE) 11:26:00 437.675
HO-68 04 Sep 11:18:16 11:24:54 41° 299° (WNW) 11:31:27 435.675
POPSAT HIP 1 04 Sep 11:18:36 11:22:49 63° 73° (ENE) 11:27:05 437.405
AISAT 04 Sep 11:20:42 11:23:26 16° 89° (E) 11:26:19 437.250
ESTCUBE 1 04 Sep 11:21:37 11:23:21 12° 86° (E) 11:25:19 437.505/2401.250
CUSAT 1 04 Sep 11:23:45 11:31:38 76° 262° (W) 11:39:50 437.405
CUTE 1.7 + AOD 2 04 Sep 11:27:22 11:29:46 15° 299° (WNW) 11:32:01 437.475
PCSat 04 Sep 11:33:33 11:38:30 36° 247° (WSW) 11:43:22 145.827
NANOSAT C BR1 04 Sep 11:34:34 11:38:50 89° 255° (WSW) 11:43:09 145.865
ZACube-1 04 Sep 11:35:56 11:40:24 60° 287° (WNW) 11:44:43 437.345
ANTELSAT 04 Sep 11:36:18 11:40:39 36° 264° (W) 11:45:00 437.575/2403.000
QB50P2 04 Sep 11:36:30 11:40:47 82° 257° (WSW) 11:45:06 145.880/145.840
FUNcube-1 04 Sep 11:39:39 11:44:04 57° 288° (WNW) 11:48:20 145.935
VELOX 1 04 Sep 11:47:03 11:50:52 27° 94° (E) 11:54:45 145.980
Oscar 19 04 Sep 11:47:58 11:48:14 10° 52° (NE) 11:48:47 437.125/150
QB50P1 04 Sep 11:49:54 11:54:08 61° 259° (W) 11:58:24 145.935-145.965
HUMSAT D 04 Sep 11:50:44 11:55:00 82° 103° (ESE) 11:59:11 437.325/437.525
UWE-3 04 Sep 11:51:19 11:55:30 35° 292° (WNW) 11:59:32 435.000/436.395/437.385
CUBEBUG 2 04 Sep 11:52:12 11:56:14 28° 294° (WNW) 12:00:06 437.445
GONETS M04 04 Sep 11:58:47 12:03:58 17° 50° (NE) 12:09:34
Cosmos 2491 04 Sep 12:00:30 12:06:25 19° 308° (NW) 12:11:59 435.465 / 435.565
DELFI C3 04 Sep 12:16:49 12:19:56 22° 294° (WNW) 12:22:58 145.870
AUBIESAT-1 04 Sep 12:17:13 12:20:04 15° 266° (W) 12:22:41 437.475
DANDE 04 Sep 12:18:19 12:25:43 49° 267° (W) 12:33:46 436.750
DX 1 04 Sep 12:18:56 12:23:22 86° 108° (ESE) 12:27:45 434.975-435.025
Oscar 11 04 Sep 12:22:07 12:24:51 16° 298° (WNW) 12:27:27 145.826/435.025
UKube-1 04 Sep 12:25:42 12:30:05 90° 295° (WNW) 12:34:26 .
SPROUT 04 Sep 12:27:14 12:29:46 15° 88° (E) 12:32:28 437.525
M-CUBED/EXP-1 PRIME 04 Sep 12:27:50 12:29:17 11° 269° (W) 12:30:28 437.505
50 SAT 04 Sep 12:28:41 12:32:35 88° 289° (WNW) 12:36:25 437.505
Cosmos 2504 04 Sep 12:29:10 12:35:58 27° 279° (W) 12:42:15 435.465 / 435.565
UNISAT 6 04 Sep 12:30:10 12:32:13 12° 275° (W) 12:34:01 437.425
ISS 04 Sep 12:41:44 12:44:54 48° 14° (NNE) 12:48:05 145.825
BUGSAT 1 04 Sep 12:43:30 12:47:03 27° 266° (W) 12:50:35 437.445
CUBEBUG 1 04 Sep 12:44:58 12:49:24 68° 102° (ESE) 12:53:49 437.445
DUCHIFAT 1 04 Sep 12:53:30 12:56:09 16° 271° (W) 12:58:40 145.980
ITAMSAT 1 04 Sep 12:53:59 12:55:08 11° 53° (NE) 12:56:32 435.822/435.867
POLYITAN 1 04 Sep 12:55:39 12:58:06 14° 272° (W) 13:00:22 437.675
Gurwin Techsat 1B 04 Sep 12:55:56 12:58:30 14° 55° (NE) 13:01:17 435.225
AISAT 04 Sep 12:56:00 13:00:27 61° 288° (WNW) 13:04:53 437.250
ESTCUBE 1 04 Sep 12:56:21 13:00:53 79° 285° (WNW) 13:05:23 437.505/2401.250
POPSAT HIP 1 04 Sep 12:56:47 12:59:10 14° 272° (W) 13:01:24 437.405
CUSAT 1 04 Sep 13:08:01 13:13:15 19° 279° (W) 13:18:15 437.405
HO-68 04 Sep 13:09:32 13:10:52 10° 320° (NW) 13:11:50 435.675
TISAT 1 04 Sep 13:15:43 13:19:22 27° 94° (E) 13:23:02 437.305
Oscar 19 04 Sep 13:21:34 13:26:37 57° 70° (ENE) 13:31:44 437.125/150
VELOX 1 04 Sep 13:23:23 13:27:29 35° 292° (WNW) 13:31:31 145.980
HUMSAT D 04 Sep 13:28:16 13:30:08 12° 301° (WNW) 13:31:51 437.325/437.525
AO-7 04 Sep 13:33:22 13:37:59 17° 40° (NE) 13:42:55 29.400- 29.500
JAS-2 04 Sep 13:45:40 13:51:59 29° 58° (ENE) 13:58:22 435.910
BEESAT 3 04 Sep 13:53:19 13:55:47 16° 113° (ESE) 13:58:24 437.485
GONETS M04 04 Sep 13:54:11 14:02:59 68° 76° (ENE) 14:11:47
DX 1 04 Sep 13:56:56 13:59:01 13° 301° (WNW) 14:00:55 434.975-435.025
SPROUT 04 Sep 14:02:00 14:06:17 59° 287° (WNW) 14:10:33 437.525
UKube-1 04 Sep 14:03:48 14:05:36 12° 302° (WNW) 14:07:13 .
DANDE 04 Sep 14:06:12 14:07:36 10° 283° (WNW) 14:08:23 436.750
Cosmos 2499 04 Sep 14:07:41 14:14:40 27° 59° (ENE) 14:21:31 435.465 / 435.565
BEESAT 2 04 Sep 14:10:41 14:13:30 18° 114° (ESE) 14:16:24 435.950
BEESAT 04 Sep 14:12:46 14:16:13 20° 91° (E) 14:19:48 436.000
ISS 04 Sep 14:18:12 14:21:20 44° 213° (SSW) 14:24:26 145.825
CUBEBUG 1 04 Sep 14:22:33 14:25:17 16° 299° (WNW) 14:27:54 437.445
ITAMSAT 1 04 Sep 14:28:39 14:33:44 62° 71° (ENE) 14:38:52 435.822/435.867
Gurwin Techsat 1B 04 Sep 14:32:25 14:37:43 79° 74° (ENE) 14:43:04 435.225
ESTCUBE 1 04 Sep 14:35:35 14:37:03 11° 303° (WNW) 14:38:19 437.505/2401.250
SWISSCUBE 04 Sep 14:38:40 14:43:06 37° 97° (E) 14:47:32 437.505
HORYU 2 04 Sep 14:39:09 14:40:28 11° 57° (ENE) 14:41:59 437.375
TISAT 1 04 Sep 14:51:18 14:55:10 33° 292° (WNW) 14:58:58 437.305
Oscar 19 04 Sep 15:02:24 15:06:23 21° 270° (W) 15:10:16 437.125/150
AIST 2 04 Sep 15:12:59 15:15:44 17° 113° (ESE) 15:18:37 435.215
ITUPSAT 1 04 Sep 15:18:55 15:23:43 81° 105° (ESE) 15:28:29 437.325
AO-7 04 Sep 15:21:09 15:29:10 56° 63° (ENE) 15:37:16 29.400- 29.500
JAS-2 04 Sep 15:28:31 15:36:21 80° 257° (WSW) 15:44:12 435.910
BEESAT 3 04 Sep 15:29:15 15:33:18 63° 310° (NW) 15:37:22 437.485
STARS 04 Sep 15:32:18 15:34:14 13° 87° (E) 15:36:23 437.465
RS-15 04 Sep 15:38:00 15:47:55 44° 111° (ESE) 15:58:22 29.354- 29.394
BEESAT 2 04 Sep 15:47:08 15:51:11 56° 311° (NW) 15:55:15 435.950
BEESAT 04 Sep 15:49:47 15:54:25 53° 290° (WNW) 15:59:02 436.000
GONETS M04 04 Sep 15:51:49 15:59:16 31° 277° (W) 16:06:30
KKS-1 04 Sep 15:58:59 16:03:11 38° 97° (E) 16:07:24 437.445
Cosmos 2499 04 Sep 16:00:18 16:09:00 80° 264° (W) 16:17:04 435.465 / 435.565
ITAMSAT 1 04 Sep 16:09:57 16:13:44 20° 270° (W) 16:17:23 435.822/435.867
HORYU 2 04 Sep 16:11:55 16:16:25 79° 74° (ENE) 16:20:56 437.375
Gurwin Techsat 1B 04 Sep 16:15:09 16:18:26 16° 273° (W) 16:21:30 435.225
SWISSCUBE 04 Sep 16:16:44 16:20:51 29° 295° (WNW) 16:24:54 437.505
MOZHAYETS 4 04 Sep 16:39:45 16:42:45 18° 89° (E) 16:45:54
Cubesat XI-IV 04 Sep 16:41:12 16:42:42 11° 53° (NE) 16:44:27 437.490
AIST 2 04 Sep 16:49:42 16:53:55 63° 310° (NW) 16:58:09 435.215
ITUPSAT 1 04 Sep 16:58:13 17:01:02 15° 301° (WNW) 17:03:42 437.325
STARS 04 Sep 17:06:50 17:11:18 75° 286° (WNW) 17:15:43 437.465
BEESAT 3 04 Sep 17:09:46 17:12:02 14° 331° (NNW) 17:14:13 437.485
AO-7 04 Sep 17:14:34 17:22:19 40° 263° (W) 17:29:58 29.400- 29.500
JAS-2 04 Sep 17:17:17 17:22:38 19° 278° (W) 17:27:36 435.910
CUTE-I 04 Sep 17:21:54 17:25:57 23° 61° (ENE) 17:30:08 437.470
BEESAT 2 04 Sep 17:28:00 17:30:07 13° 333° (NNW) 17:32:08 435.950
KKS-1 04 Sep 17:35:54 17:39:41 26° 295° (WNW) 17:43:22 437.445
RS-15 04 Sep 17:48:55 17:59:54 67° 316° (NW) 18:11:25 29.354- 29.394
HORYU 2 04 Sep 17:51:42 17:53:42 12° 273° (W) 17:55:28 437.375
Cosmos 2499 04 Sep 17:55:22 18:00:49 18° 285° (WNW) 18:05:39 435.465 / 435.565
AIST 1 04 Sep 18:02:37 18:05:10 16° 65° (ENE) 18:07:54
Cosmos 2491 04 Sep 18:09:48 18:14:56 17° 50° (NE) 18:20:30 435.465 / 435.565
MOZHAYETS 4 04 Sep 18:15:55 18:20:24 56° 288° (WNW) 18:24:51
Cubesat XI-IV 04 Sep 18:16:38 18:21:52 63° 72° (ENE) 18:27:10 437.490
HO-68 04 Sep 18:19:44 18:22:34 13° 43° (NE) 18:25:42 435.675
BRITE-PL 04 Sep 18:22:18 18:24:33 14° 57° (ENE) 18:27:04 437.365/2234.400
AIST 2 04 Sep 18:30:50 18:33:19 15° 332° (NNW) 18:35:44 435.215
GOMX 1 04 Sep 18:32:18 18:33:31 11° 54° (NE) 18:35:00 467.674
CUBESAT XI-V 04 Sep 18:43:39 18:47:43 30° 94° (E) 18:51:50 437.345
STARS 04 Sep 18:45:59 18:47:00 11° 304° (WNW) 18:47:48 437.465
O/OREOS (USA 219) 04 Sep 18:50:38 18:55:02 53° 110° (ESE) 18:59:32 437.305
CUTE-I 04 Sep 19:00:27 19:05:41 59° 259° (W) 19:10:57 437.470
CANX-2 04 Sep 19:27:00 19:29:09 14° 61° (ENE) 19:31:28 2200.000
AIST 1 04 Sep 19:39:01 19:43:18 59° 264° (W) 19:47:35
SEEDS 04 Sep 19:41:12 19:43:21 14° 61° (ENE) 19:45:39 437.485
COMPASS 1 04 Sep 19:56:01 19:58:26 15° 62° (ENE) 20:00:59 437.405
BRITE-PL 04 Sep 19:57:45 20:02:18 90° 274° (W) 20:07:16 437.365/2234.400
Cubesat XI-IV 04 Sep 19:58:32 20:02:30 20° 270° (W) 20:06:18 437.490
DOVE 4 04 Sep 20:00:12 20:04:38 39° 68° (ENE) 20:09:22 437.250
HO-68 04 Sep 20:01:58 20:08:48 50° 64° (ENE) 20:15:42 435.675
AAUSAT CUBESAT 2 04 Sep 20:02:38 20:05:01 15° 62° (ENE) 20:07:33 437.432
RS-15 04 Sep 20:04:52 20:14:57 35° 347° (NNW) 20:25:24 29.354- 29.394
Cosmos 2491 04 Sep 20:05:14 20:13:57 68° 76° (ENE) 20:22:43 435.465 / 435.565
GOMX 1 04 Sep 20:06:02 20:10:41 68° 73° (ENE) 20:15:43 467.674
STRAND 1 04 Sep 20:08:56 20:13:55 51° 100° (E) 20:18:54 437.568
YUBILEINY 04 Sep 20:16:05 20:23:21 32° 83° (E) 20:30:53 435.215
CINEMA 3 04 Sep 20:16:42 20:20:44 28° 65° (ENE) 20:24:58 145.822/145.860
CUBESAT XI-V 04 Sep 20:20:59 20:25:11 34° 292° (WNW) 20:29:23 437.345
O/OREOS (USA 219) 04 Sep 20:31:10 20:34:49 22° 310° (NW) 20:38:25 437.305
PRISM 04 Sep 20:38:09 20:42:17 72° 103° (ESE) 20:46:24 437.425
CUTE 1.7 + AOD 2 04 Sep 20:45:37 20:49:53 72° 75° (ENE) 20:54:09 437.475
ZACube-1 04 Sep 20:59:34 21:02:54 21° 63° (ENE) 21:06:20 437.345
CANX-2 04 Sep 21:00:17 21:04:35 73° 258° (WSW) 21:08:52 2200.000
FUNcube-1 04 Sep 21:02:58 21:06:21 21° 64° (ENE) 21:09:52 145.935
HUMSAT D 04 Sep 21:12:54 21:14:11 11° 59° (ENE) 21:15:39 437.325/437.525
SEEDS 04 Sep 21:14:24 21:18:39 72° 258° (WSW) 21:22:54 437.485
UWE-3 04 Sep 21:14:40 21:18:52 35° 68° (ENE) 21:23:10 435.000/436.395/437.385
CUBEBUG 2 04 Sep 21:16:03 21:20:31 45° 70° (ENE) 21:25:06 437.445
Cosmos 2504 04 Sep 21:25:29 21:26:27 10° 69° (ENE) 21:28:05 435.465 / 435.565
COMPASS 1 04 Sep 21:29:30 21:33:40 62° 259° (W) 21:37:51 437.405
DELFI C3 04 Sep 21:31:14 21:34:55 35° 70° (ENE) 21:38:37 145.870
AAUSAT CUBESAT 2 04 Sep 21:36:02 21:40:11 62° 259° (W) 21:44:21 437.432
DOVE 4 04 Sep 21:38:20 21:42:31 29° 268° (W) 21:46:51 437.250
BRITE-PL 04 Sep 21:40:24 21:41:50 11° 278° (W) 21:43:01 437.365/2234.400
Oscar 11 04 Sep 21:42:18 21:46:37 71° 74° (ENE) 21:50:58 145.826/435.025
DX 1 04 Sep 21:43:42 21:45:59 14° 60° (ENE) 21:48:24 434.975-435.025
GOMX 1 04 Sep 21:46:27 21:49:29 16° 275° (W) 21:52:27 467.674
STRAND 1 04 Sep 21:48:43 21:52:51 25° 298° (WNW) 21:56:54 437.568
UKube-1 04 Sep 21:49:38 21:51:59 15° 60° (ENE) 21:54:29 .
HO-68 04 Sep 21:50:08 21:56:45 38° 264° (W) 22:03:20 435.675
CINEMA 3 04 Sep 21:53:09 21:57:44 42° 264° (W) 22:02:29 145.822/145.860
AIST 2 04 Sep 21:53:43 21:54:17 10° 20° (NNE) 21:54:57 435.215
Cosmos 2491 04 Sep 22:02:54 22:10:16 31° 277° (W) 22:17:26 435.465 / 435.565
BEESAT 3 04 Sep 22:07:14 22:10:51 30° 42° (NE) 22:14:27 437.485
YUBILEINY 04 Sep 22:10:54 22:19:39 66° 284° (WNW) 22:28:28 435.215
CUBEBUG 1 04 Sep 22:11:28 22:12:36 11° 58° (ENE) 22:13:55 437.445
PRISM 04 Sep 22:15:05 22:17:14 14° 300° (WNW) 22:19:12 437.425
RS-15 04 Sep 22:20:47 22:31:18 38° 20° (NNE) 22:42:21 29.354- 29.394
AISAT 04 Sep 22:21:20 22:24:41 22° 64° (ENE) 22:28:10 437.250
ESTCUBE 1 04 Sep 22:23:57 22:26:54 18° 62° (ENE) 22:29:59 437.505/2401.250
CUTE 1.7 + AOD 2 04 Sep 22:24:23 22:26:21 13° 273° (W) 22:28:08 437.475
BEESAT 2 04 Sep 22:25:29 22:29:14 34° 43° (NE) 22:32:57 435.950
ZACube-1 04 Sep 22:34:25 22:38:54 53° 261° (W) 22:43:27 437.345
FUNcube-1 04 Sep 22:37:53 22:42:21 51° 261° (W) 22:46:51 145.935
UNISAT 6 04 Sep 22:40:27 22:42:54 15° 87° (E) 22:45:30 437.425
HUMSAT D 04 Sep 22:44:55 22:49:15 85° 76° (ENE) 22:53:37 437.325/437.525
VELOX 1 04 Sep 22:47:30 22:51:31 36° 68° (ENE) 22:55:36 145.980
UWE-3 04 Sep 22:51:19 22:55:26 30° 267° (W) 22:59:33 435.000/436.395/437.385
CUBEBUG 2 04 Sep 22:53:34 22:57:25 24° 269° (W) 23:01:14 437.445
CUSAT 1 04 Sep 22:54:35 22:57:00 14° 77° (ENE) 22:59:58 437.405
TIGRISAT 04 Sep 23:06:21 23:10:06 25° 92° (E) 23:13:49 435.000
DELFI C3 04 Sep 23:06:49 23:10:05 23° 267° (W) 23:13:16 145.870
Cosmos 2504 04 Sep 23:08:51 23:16:46 52° 90° (E) 23:25:04 435.465 / 435.565
50 SAT 04 Sep 23:14:34 23:18:31 78° 75° (ENE) 23:22:29 437.505
DX 1 04 Sep 23:17:22 23:21:42 74° 256° (WSW) 23:26:06 434.975-435.025
NANOSAT C BR1 04 Sep 23:18:10 23:19:49 12° 86° (E) 23:21:40 145.865
QB50P2 04 Sep 23:20:11 23:22:17 14° 88° (E) 23:24:33 145.880/145.840
Oscar 11 04 Sep 23:21:14 23:23:22 13° 273° (W) 23:25:18 145.826/435.025
UKube-1 04 Sep 23:23:18 23:27:37 71° 257° (WSW) 23:31:57 .
SPROUT 04 Sep 23:24:25 23:27:24 19° 63° (ENE) 23:30:29 437.525
ANTELSAT 04 Sep 23:24:55 23:29:12 39° 97° (E) 23:33:23 437.575/2403.000
AIST 2 04 Sep 23:30:17 23:34:08 33° 42° (NE) 23:37:56 435.215
QB50P1 04 Sep 23:32:41 23:35:34 18° 90° (E) 23:38:33 145.935-145.965
CUBEBUG 1 04 Sep 23:43:56 23:48:15 82° 78° (ENE) 23:52:39 437.445
BEESAT 3 04 Sep 23:45:05 23:48:49 36° 241° (WSW) 23:52:28 437.485
DANDE 04 Sep 23:51:41 23:55:06 26° 85° (E) 23:59:30 436.750
AUBIESAT-1 04 Sep 23:53:10 23:56:32 29° 100° (E) 23:59:43 437.475
AISAT 04 Sep 23:56:46 00:01:00 45° 261° (W) 00:05:18 437.250
ESTCUBE 1 04 Sep 23:58:57 00:03:22 59° 259° (WSW) 00:07:49 437.505/2401.250
M-CUBED/EXP-1 PRIME 05 Sep 00:02:29 00:06:15 44° 104° (ESE) 00:09:44 437.505
BEESAT 2 05 Sep 00:03:36 00:07:14 31° 242° (WSW) 00:10:47 435.950
SO-50 05 Sep 00:09:08 00:13:01 25° 114° (ESE) 00:17:05 436.795
TISAT 1 05 Sep 00:10:43 00:14:25 31° 67° (ENE) 00:18:11 437.305
YUBILEINY 05 Sep 00:13:12 00:18:43 17° 310° (NW) 00:23:50 435.215
UNISAT 6 05 Sep 00:15:42 00:20:15 67° 286° (WNW) 00:24:40 437.425
BUGSAT 1 05 Sep 00:21:48 00:25:41 34° 96° (E) 00:29:36 437.445
VELOX 1 05 Sep 00:24:26 00:28:10 26° 266° (W) 00:31:51 145.980
HUMSAT D 05 Sep 00:24:31 00:25:40 11° 275° (W) 00:26:35 437.325/437.525
DUCHIFAT 1 05 Sep 00:32:46 00:37:05 69° 102° (ESE) 00:41:20 145.980
CUSAT 1 05 Sep 00:33:48 00:38:19 79° 283° (WNW) 00:44:27 437.405
RS-15 05 Sep 00:34:03 00:45:52 79° 49° (NE) 00:58:09 29.354- 29.394
POLYITAN 1 05 Sep 00:35:22 00:39:42 78° 103° (ESE) 00:44:00 437.675
POPSAT HIP 1 05 Sep 00:36:13 00:40:33 78° 103° (ESE) 00:44:50 437.405
PCSat 05 Sep 00:36:31 00:40:04 19° 107° (ESE) 00:43:48 145.827
TIGRISAT 05 Sep 00:42:44 00:46:59 38° 292° (WNW) 00:51:06 435.000
NANOSAT C BR1 05 Sep 00:51:56 00:56:14 74° 286° (WNW) 01:00:29 145.865
ITUPSAT 1 05 Sep 00:52:49 00:56:04 19° 61° (ENE) 00:59:27 437.325
QB50P2 05 Sep 00:54:23 00:58:41 67° 286° (WNW) 01:02:56 145.880/145.840
SPROUT 05 Sep 00:58:55 01:03:07 51° 260° (W) 01:07:23 437.525
Cosmos 2504 05 Sep 01:01:25 01:09:16 41° 292° (WNW) 01:17:18 435.465 / 435.565
ANTELSAT 05 Sep 01:02:01 01:05:49 26° 295° (WNW) 01:09:27 437.575/2403.000
QB50P1 05 Sep 01:07:34 01:11:45 50° 289° (WNW) 01:15:54 145.935-145.965
GONETS M04 05 Sep 01:08:00 01:11:59 15° 73° (ENE) 01:16:33
AIST 2 05 Sep 01:08:53 01:12:41 34° 242° (WSW) 01:16:24 435.215
BEESAT 05 Sep 01:22:02 01:26:16 33° 66° (ENE) 01:30:34 436.000
CUBEBUG 1 05 Sep 01:23:57 01:25:19 11° 274° (W) 01:26:26 437.445
AUBIESAT-1 05 Sep 01:27:56 01:31:12 25° 300° (WNW) 01:34:13 437.475
Oscar 19 05 Sep 01:31:11 01:34:11 16° 87° (E) 01:37:24 437.125/150
DANDE 05 Sep 01:34:08 01:38:00 34° 295° (WNW) 01:43:03 436.750
M-CUBED/EXP-1 PRIME 05 Sep 01:37:55 01:40:44 18° 304° (WNW) 01:43:19 437.505
TISAT 1 05 Sep 01:46:29 01:50:11 28° 266° (W) 01:53:51 437.305
SWISSCUBE 05 Sep 01:48:06 01:52:47 62° 72° (ENE) 01:57:31 437.505
SO-50 05 Sep 01:48:30 01:53:17 55° 313° (NW) 01:58:11 436.795
BUGSAT 1 05 Sep 01:57:25 02:01:03 27° 294° (WNW) 02:04:36 437.445
DUCHIFAT 1 05 Sep 02:09:53 02:12:24 15° 299° (WNW) 02:14:44 145.980
POLYITAN 1 05 Sep 02:12:50 02:15:03 14° 300° (WNW) 02:17:06 437.675
POPSAT HIP 1 05 Sep 02:13:39 02:15:53 14° 300° (WNW) 02:17:56 437.405
PCSat 05 Sep 02:17:31 02:22:56 77° 304° (NW) 02:28:25 145.827
CUSAT 1 05 Sep 02:19:43 02:22:30 14° 312° (NW) 02:25:23 437.405
ITUPSAT 1 05 Sep 02:28:49 02:33:32 63° 258° (WSW) 02:38:17 437.325
STARS 05 Sep 02:31:51 02:34:50 18° 62° (ENE) 02:37:57 437.465
JAS-2 05 Sep 02:38:23 02:41:21 14° 78° (ENE) 02:44:34 435.910
ITAMSAT 1 05 Sep 02:39:21 02:42:36 17° 88° (E) 02:46:02 435.822/435.867
Gurwin Techsat 1B 05 Sep 02:45:58 02:50:14 25° 91° (E) 02:54:35 435.225
RS-15 05 Sep 02:47:10 02:57:34 36° 252° (WSW) 03:07:58 29.354- 29.394
Cosmos 2499 05 Sep 02:50:04 02:55:22 19° 76° (ENE) 03:01:11 435.465 / 435.565
GONETS M04 05 Sep 02:58:45 03:07:19 69° 94° (E) 03:16:00
BEESAT 05 Sep 02:59:49 03:04:07 32° 265° (W) 03:08:23 436.000
KKS-1 05 Sep 02:59:56 03:04:15 51° 71° (ENE) 03:08:38 437.445
Oscar 19 05 Sep 03:09:01 03:14:14 77° 287° (WNW) 03:19:25 437.125/150
O/OREOS (USA 219) 05 Sep 03:18:34 03:22:22 25° 51° (NE) 03:26:11 437.305
AO-7 05 Sep 03:22:12 03:24:47 12° 80° (E) 03:28:02 29.400- 29.500
SWISSCUBE 05 Sep 03:27:54 03:31:07 17° 271° (W) 03:34:11 437.505
VERMONT LUNAR 05 Sep 03:29:03 03:31:14 18° 169° (S) 03:33:24 437.305
SO-50 05 Sep 03:31:43 03:34:55 17° 336° (NNW) 03:38:05 436.795
MOZHAYETS 4 05 Sep 03:44:33 03:48:15 25° 65° (ENE) 03:52:02
HORYU 2 05 Sep 04:02:01 04:03:37 12° 86° (E) 04:05:27 437.375
PCSat 05 Sep 04:03:21 04:07:18 20° 327° (NNW) 04:11:11 145.827
STARS 05 Sep 04:06:32 04:10:54 57° 259° (W) 04:15:19 437.465
ITAMSAT 1 05 Sep 04:17:32 04:22:43 72° 288° (WNW) 04:27:54 435.822/435.867
JAS-2 05 Sep 04:21:02 04:28:02 76° 102° (ESE) 04:34:09 435.910
Gurwin Techsat 1B 05 Sep 04:25:23 04:30:33 51° 291° (WNW) 04:35:40 435.225
KKS-1 05 Sep 04:38:01 04:41:14 19° 270° (W) 04:44:21 437.445
Cosmos 2499 05 Sep 04:38:37 04:47:14 79° 96° (E) 04:56:10 435.465 / 435.565
Oscar 19 05 Sep 04:50:16 04:52:49 13° 305° (NW) 04:55:09 437.125/150
GONETS M04 05 Sep 04:57:25 05:05:00 31° 298° (WNW) 05:12:29
O/OREOS (USA 219) 05 Sep 04:57:36 05:02:03 47° 251° (WSW) 05:06:25 437.305
VERMONT LUNAR 05 Sep 05:04:44 05:07:06 21° 185° (S) 05:09:28 437.305
AO-7 05 Sep 05:11:26 05:19:39 61° 103° (ESE) 05:27:50 29.400- 29.500
SO-50 05 Sep 05:16:36 05:17:29 10° 0° (N) 05:18:24 436.795
MOZHAYETS 4 05 Sep 05:20:55 05:25:18 41° 263° (W) 05:29:40
PHONESAT 2.4 05 Sep 05:36:17 05:38:53 20° 167° (SSE) 05:41:30 2401.200-2431.200
HORYU 2 05 Sep 05:36:27 05:40:56 80° 286° (WNW) 05:45:21 437.375
CUBESAT XI-V 05 Sep 05:49:59 05:54:16 41° 69° (ENE) 05:58:36 437.345
STRAND 1 05 Sep 05:51:21 05:54:25 17° 58° (ENE) 05:57:39 437.568
ITAMSAT 1 05 Sep 05:59:11 06:01:25 13° 306° (NW) 06:03:27 435.822/435.867
JAS-2 05 Sep 06:06:54 06:12:22 24° 304° (NW) 06:17:14 435.910
YUBILEINY 05 Sep 06:21:24 06:27:14 19° 53° (NE) 06:33:23 435.215
Cubesat XI-IV 05 Sep 06:31:33 06:35:14 19° 89° (E) 06:39:05 437.490
Cosmos 2499 05 Sep 06:34:06 06:41:30 29° 300° (WNW) 06:48:51 435.465 / 435.565
VERMONT LUNAR 05 Sep 06:41:52 06:42:53 11° 201° (SSW) 06:43:52 437.305
SO-50 05 Sep 06:56:52 07:00:04 17° 24° (NNE) 07:03:19 436.795
AO-7 05 Sep 07:04:42 07:12:11 38° 304° (NW) 07:19:31 29.400- 29.500
PHONESAT 2.4 05 Sep 07:13:20 07:16:13 25° 183° (S) 07:19:06 2401.200-2431.200
HORYU 2 05 Sep 07:15:25 07:16:51 11° 303° (WNW) 07:18:06 437.375
